This demonstration page uses our WeatherBlox Daily Observations layout. Learn more.

Left ArrowRight Arrow

39.51506, -84.39828

Hourly Observations for August 28, 2016

Temp ( °F °C ) Dew Point ( °F °C ) Humidity (%) Winds ( mph kmh ) Pressure ( in mb ) Visibility ( mi km ) Precip ( " mm )
12:15 am 00:15 Clear 74 23.6 70 21 85 85 N N/A 30.15 1021 10 16 N/A
12:35 am 00:35 Clear 74 23.6 70 21 85 85 N N/A 30.15 1021 10 16 N/A
12:55 am 00:55 Clear 74 23.6 70 21 85 85 N N/A 30.15 1021 10 16 N/A
1:15 am 01:15 Clear 74 23.6 70 21 85 85 N N/A 30.15 1021 10 16 N/A
1:35 am 01:35 Clear 74 23.6 70 21 85 85 N N/A 30.15 1021 7 11 N/A
1:55 am 01:55 Clear 72 22.3 67 19.6 85 85 N N/A 30.12 1020 7 11 N/A
2:15 am 02:15 Clear 72 22.3 67 19.7 85 85 N N/A 30.12 1020 10 16 N/A
2:35 am 02:35 Clear 72 22 67 19.4 85 85 N N/A 30.12 1020 7 11 N/A
2:55 am 02:55 Clear 71 21.6 66 19 85 85 N N/A 30.12 1020 7 11 N/A
3:15 am 03:15 Clear 71 21.6 66 19 85 85 N N/A 30.12 1020 10 16 N/A
3:35 am 03:35 Clear 69 20.8 65 18.2 85 85 N N/A 30.12 1020 10 16 N/A
3:55 am 03:55 Clear 70 20.9 65 18.4 86 86 N N/A 30.12 1020 10 16 N/A
4:15 am 04:15 Clear 69 20.8 65 18.2 85 85 N N/A 30.12 1020 10 16 N/A
4:35 am 04:35 Clear 69 20.8 65 18.2 85 85 N N/A 30.12 1020 10 16 N/A
4:55 am 04:55 Clear 69 20.8 65 18.3 86 86 N N/A 30.12 1020 10 16 N/A
5:15 am 05:15 Clear 69 20.8 65 18.2 85 85 N N/A 30.12 1020 10 16 N/A
5:35 am 05:35 Clear 69 20.8 65 18.2 85 85 N N/A 30.15 1021 10 16 N/A
5:55 am 05:55 Clear 69 20.8 65 18.2 85 85 NNW 5 7 30.15 1021 10 16 N/A
6:15 am 06:15 Clear 70 21.1 65 18.5 85 85 N 3 6 30.15 1021 10 16 N/A
6:35 am 06:35 Clear 71 21.5 66 18.8 85 85 N N/A 30.15 1021 10 16 N/A
6:55 am 06:55 Clear 70 21 65 18.3 85 85 N N/A 30.15 1021 10 16 N/A
7:15 am 07:15 Sunny 69 20.8 65 18.1 85 85 N N/A 30.18 1022 10 16 N/A
7:35 am 07:35 Sunny 69 20.8 65 18.2 85 85 N N/A 30.18 1022 10 16 N/A
7:55 am 07:55 Sunny 71 21.4 66 18.9 86 86 N N/A 30.18 1022 10 16 N/A
8:15 am 08:15 Sunny 74 23.3 69 20.8 86 86 N N/A 30.18 1022 10 16 N/A
8:35 am 08:35 Sunny 74 23.6 70 21 85 85 N N/A 30.18 1022 10 16 N/A
8:55 am 08:55 Sunny 74 23.6 69 20.5 83 83 N N/A 30.18 1022 10 16 N/A
9:15 am 09:15 Sunny 77 25.1 70 21.2 79 79 N N/A 30.18 1022 10 16 N/A
9:35 am 09:35 Sunny 77 25.1 69 20.7 77 77 N 3 6 30.18 1022 10 16 N/A
9:55 am 09:55 Sunny 80 26.5 70 20.9 71 71 N N/A 30.21 1023 10 16 N/A
10:15 am 10:15 Sunny 81 27 69 20.6 68 68 N N/A 30.21 1023 10 16 N/A
10:35 am 10:35 Sunny 82 28 70 21.1 66 66 NE 5 7 30.21 1023 10 16 N/A
10:55 am 10:55 Sunny 83 28.3 71 21.4 66 66 N 5 7 30.21 1023 10 16 N/A
11:15 am 11:15 Sunny 84 29.1 70 20.9 61 61 NE 6 9 30.21 1023 10 16 N/A
11:35 am 11:35 Hazy 87 30.3 70 21.3 59 59 NNE 5 7 30.18 1022 5 8 N/A
11:55 am 11:55 Sunny 88 31.3 70 21.3 55 55 NNE 6 9 30.18 1022 10 16 N/A
12:15 pm 12:15 Sunny 87 30.7 70 21.2 57 57 N 7 11 30.15 1021 10 16 N/A
12:35 pm 12:35 Sunny 90 32.1 71 21.8 54 54 ENE 7 11 30.15 1021 10 16 N/A
12:55 pm 12:55 Sunny 90 32.1 70 21.1 52 52 N N/A 30.15 1021 10 16 N/A
1:15 pm 13:15 Sunny 90 32.1 69 20.7 51 51 N 3 6 30.15 1021 10 16 N/A
1:35 pm 13:35 Sunny 90 32.1 68 20 49 49 NE 3 6 30.15 1021 10 16 N/A
1:55 pm 13:55 Sunny 90 32.1 69 20.6 51 51 N N/A 30.15 1021 10 16 N/A
2:15 pm 14:15 Sunny 90 32.1 69 20.6 51 51 NNW 3 6 30.15 1021 10 16 N/A
2:35 pm 14:35 Sunny 90 32.1 70 21 52 52 NNW 5 7 30.15 1021 10 16 N/A
2:55 pm 14:55 Partly Cloudy 90 32.1 69 20.8 51 51 N N/A 30.12 1020 10 16 N/A
3:15 pm 15:15 Sunny 90 32.1 69 20.4 50 50 N 5 7 30.12 1020 10 16 N/A
3:35 pm 15:35 Partly Cloudy 91 32.5 70 20.9 50 50 NNW 3 6 30.09 1019 10 16 N/A
3:55 pm 15:55 Partly Cloudy 90 32.1 68 19.9 48 48 N 5 7 30.09 1019 10 16 N/A
4:15 pm 16:15 Partly Cloudy 90 32.1 68 20.2 49 49 W 5 7 30.09 1019 10 16 N/A
4:35 pm 16:35 Sunny 90 32.1 69 20.4 50 50 NW 6 9 30.09 1019 10 16 N/A
4:55 pm 16:55 Sunny 90 32.1 67 19.7 48 48 NW 5 7 30.09 1019 10 16 N/A
5:15 pm 17:15 Sunny 90 32.1 67 19.7 48 48 NW 5 7 30.09 1019 10 16 N/A
5:35 pm 17:35 Sunny 90 32.1 66 18.8 45 45 NW 6 9 30.09 1019 10 16 N/A
5:55 pm 17:55 Sunny 90 32.1 67 19.3 47 47 N 3 6 30.09 1019 10 16 N/A
6:15 pm 18:15 Sunny 90 32.1 69 20.6 51 51 WNW 5 7 30.06 1018 10 16 N/A
6:35 pm 18:35 Sunny 90 32.1 69 20.6 51 51 N 6 9 30.09 1019 10 16 N/A
6:55 pm 18:55 Sunny 90 32.1 67 19.2 46 46 NE 14 22 30.09 1019 10 16 N/A
7:15 pm 19:15 Sunny 83 28.2 60 15.6 46 46 NE 8 13 30.12 1020 10 16 N/A
7:35 pm 19:35 Sunny 82 28 61 16.3 49 49 ENE 6 9 30.15 1021 10 16 N/A
7:55 pm 19:55 Sunny 80 26.7 63 17.3 56 56 N 3 6 30.15 1021 10 16 N/A
8:15 pm 20:15 Partly Cloudy 81 27.2 65 18.4 59 59 S 3 6 30.18 1022 10 16 N/A
8:35 pm 20:35 Mostly Cloudy 80 26.4 66 19 64 64 SSE 8 13 30.21 1023 10 16 N/A
8:55 pm 20:55 Cloudy 77 25.1 66 19 69 69 E 5 7 30.21 1023 10 16 N/A
9:15 pm 21:15 Partly Cloudy 77 25.1 66 18.7 68 68 ESE 6 9 30.21 1023 10 16 N/A
9:35 pm 21:35 Partly Cloudy 77 25.1 66 18.9 69 69 ESE 3 6 30.21 1023 10 16 N/A
9:55 pm 21:55 Cloudy 77 25.1 66 19.1 69 69 N N/A 30.27 1025 10 16 N/A
10:15 pm 22:15 Cloudy with Heavy Rain 76 24.7 66 19.1 71 71 ESE 7 11 30.24 1024 4 6 N/A
10:35 pm 22:35 Cloudy with Light Rain 74 23.6 67 19.7 79 79 S 6 9 30.24 1024 10 16 N/A
10:55 pm 22:55 Mostly Cloudy with Light Rain 74 23.6 68 19.8 79 79 WSW 5 7 30.21 1023 10 16 N/A
11:15 pm 23:15 Mostly Cloudy with Light Rain 74 23.6 68 20.2 81 81 WSW 5 7 30.21 1023 10 16 N/A
11:35 pm 23:35 Partly Cloudy with Light Rain 74 23.6 68 20.2 81 81 N N/A 30.18 1022 10 16 N/A
11:55 pm 23:55 Clear 74 23.6 69 20.5 83 83 N N/A 30.15 1021 10 16 N/A

Powered by AerisWeather